Franklin, NC

7:41 AM EDT on April 26, 2018 (GMT -0400)
Franklin

Weather History for K1A5 - June, 2012

Change the Weather History Date:

Wednesday, June 13, 2012

  Actual Average (KTOC) Record (KTOC)
Temperature  
Mean Temperature 70 °F -  
Max Temperature 86 °F 85 °F 94 °F (2016)
Min Temperature 55 °F 61 °F 64 °F (2014)
Cooling Degree Days 6    
Growing Degree Days 20 (Base 50)    
Moisture  
Dew Point 59 °F    
Average Humidity 80    
Maximum Humidity 100    
Minimum Humidity 29    
Precipitation  
Precipitation 0.07 in - - ()
Sea Level Pressure  
Sea Level Pressure 30.04 in    
Wind  
Wind Speed 1 mph (South)    
Max Wind Speed 9 mph    
Max Gust Speed 21 mph    
Visibility 6 miles    
Events Fog , Rain    
Averages and records for this station are not official NWS values.
T = Trace of Precipitation, MM = Missing Value Source: NWS Daily Summary

Daily Weather History Graph

Daily Weather History Graph

Search for Another Location

Airport or City:

Astronomy

Jun. 13, 2012 Rise Set
Actual Time 6:18 AM EDT 8:49 PM EDT
Civil Twilight 5:48 AM EDT 9:19 PM EDT
Nautical Twilight 5:11 AM EDT 9:55 PM EDT
Astronomical Twilight 4:31 AM EDT 10:36 PM EDT
Moon 2:22 AM EDT (6/13) 3:42 PM EDT (6/13)
Length of Visible Light 15h 30m
Length of Day
14h 30m
Waning Crescent, 29% of the Moon is Illuminated
Jun 13
Waning Crescent
Jun 19
New
Jun 26
First Quarter
Jul 3
Full
Jul 10
Last Quarter

Hourly Weather History & Observations

Time (EDT) Temp. Heat Index Dew Point Humidity Pressure Visibility Wind Dir Wind Speed Gust Speed Precip Events Conditions
12:15 AM 62.6 °F - 60.8 °F 94% 30.06 in 7.0 mi WSW 4.6 mph - N/A   Clear
12:35 AM 60.8 °F - 60.8 °F 100% 30.05 in 7.0 mi Calm Calm - N/A   Clear
12:55 AM 60.8 °F - 60.8 °F 100% 30.06 in 7.0 mi Calm Calm - N/A   Clear
1:15 AM 60.8 °F - 60.8 °F 100% 30.06 in 5.0 mi Calm Calm - N/A   Clear
1:35 AM 60.8 °F - 59.0 °F 94% 30.06 in 4.0 mi Calm Calm - N/A   Clear
1:55 AM 59.0 °F - 59.0 °F 100% 30.05 in 4.0 mi Calm Calm - N/A   Clear
2:15 AM 59.0 °F - 59.0 °F 100% 30.06 in 3.0 mi Calm Calm - N/A   Clear
2:35 AM 59.0 °F - 59.0 °F 100% 30.04 in 2.5 mi Calm Calm - N/A   Clear
2:55 AM 59.0 °F - 57.2 °F 94% 30.04 in 2.0 mi Calm Calm - N/A   Clear
3:15 AM 59.0 °F - 57.2 °F 94% 30.04 in 0.8 mi Calm Calm - N/A   Mist
3:35 AM 57.2 °F - 55.4 °F 94% 30.04 in 3.0 mi Calm Calm - N/A   Clear
3:55 AM 57.2 °F - 55.4 °F 94% 30.04 in 3.0 mi Calm Calm - N/A   Clear
4:15 AM 57.2 °F - 55.4 °F 94% 30.04 in 3.0 mi Calm Calm - N/A   Scattered Clouds
4:35 AM 55.4 °F - 55.4 °F 100% 30.04 in 0.8 mi Calm Calm - N/A   Overcast
4:55 AM 57.2 °F - 55.4 °F 94% 30.04 in 0.2 mi Calm Calm - N/A Fog Fog
5:15 AM 57.2 °F - 55.4 °F 94% 30.04 in 0.2 mi Calm Calm - N/A Fog Fog
5:35 AM 59.0 °F - 55.4 °F 88% 30.04 in 0.5 mi Calm Calm - N/A Fog Fog
5:55 AM 59.0 °F - 55.4 °F 88% 30.04 in 0.5 mi Calm Calm - N/A Fog Fog
6:15 AM 59.0 °F - 55.4 °F 88% 30.04 in 0.2 mi Calm Calm - N/A Fog Fog
6:35 AM 59.0 °F - 55.4 °F 88% 30.06 in 0.2 mi Calm Calm - N/A Fog Fog
6:55 AM 59.0 °F - 55.4 °F 88% 30.05 in 0.2 mi Calm Calm - N/A Fog Fog
7:15 AM 59.0 °F - 55.4 °F 88% 30.06 in 0.2 mi Calm Calm - N/A Fog Fog
7:35 AM 59.0 °F - 55.4 °F 88% 30.06 in 0.2 mi Calm Calm - N/A Fog Fog
7:55 AM 59.0 °F - 57.2 °F 94% 30.06 in 0.2 mi Calm Calm - N/A Fog Fog
8:35 AM 59.0 °F - 59.0 °F 100% 30.06 in 0.5 mi Calm Calm - N/A Fog Fog
9:15 AM 60.8 °F - 59.0 °F 94% 30.06 in 2.5 mi Calm Calm - N/A   Overcast
9:35 AM 60.8 °F - 59.0 °F 94% 30.06 in 4.0 mi Calm Calm - N/A   Overcast
9:55 AM 62.6 °F - 60.8 °F 94% 30.06 in 7.0 mi Calm Calm - N/A   Mostly Cloudy
10:15 AM 64.4 °F - 62.6 °F 94% 30.06 in 10.0 mi Calm Calm - N/A   Scattered Clouds
10:35 AM 69.8 °F - 60.8 °F 73% 30.06 in 10.0 mi Calm Calm - N/A   Clear
10:55 AM 69.8 °F - 60.8 °F 73% 30.06 in 10.0 mi Calm Calm - N/A   Clear
11:15 AM 75.2 °F - 60.8 °F 61% 30.06 in 10.0 mi Calm Calm - N/A   Clear
11:55 AM 77.0 °F - 60.8 °F 57% 30.07 in 10.0 mi Calm Calm - N/A   Clear
12:15 PM 78.8 °F - 60.8 °F 54% 30.07 in 10.0 mi Calm Calm - N/A   Clear
12:35 PM 80.6 °F 81.1 °F 59.0 °F 48% 30.04 in 10.0 mi Calm Calm - N/A   Clear
12:55 PM 80.6 °F 81.1 °F 59.0 °F 48% 30.04 in 10.0 mi Calm Calm - N/A   Clear
1:15 PM 80.6 °F 81.1 °F 59.0 °F 48% 30.04 in 10.0 mi Calm Calm - N/A   Scattered Clouds
1:35 PM 80.6 °F 81.1 °F 59.0 °F 48% 30.02 in 10.0 mi Calm Calm - N/A   Scattered Clouds
1:55 PM 82.4 °F 81.4 °F 53.6 °F 37% 30.01 in 10.0 mi WSW 3.5 mph - N/A   Clear
2:35 PM 84.2 °F - 50.0 °F 30% 30.01 in 10.0 mi Calm Calm - N/A   Clear
2:55 PM 86.0 °F - 50.0 °F 29% 30.01 in 10.0 mi Calm Calm - N/A   Clear
3:15 PM 82.4 °F - 50.0 °F 32% 30.00 in 10.0 mi WSW 3.5 mph - N/A   Clear
3:35 PM 86.0 °F - 50.0 °F 29% 29.99 in 10.0 mi WSW 4.6 mph - N/A   Scattered Clouds
3:55 PM 80.6 °F 81.1 °F 59.0 °F 48% 29.99 in 10.0 mi WSW 3.5 mph - N/A   Scattered Clouds
4:15 PM 82.4 °F 82.5 °F 59.0 °F 45% 29.99 in 10.0 mi WSW 3.5 mph - N/A   Scattered Clouds
4:35 PM 82.4 °F 82.5 °F 59.0 °F 45% 29.99 in 10.0 mi SE 6.9 mph - N/A   Mostly Cloudy
4:55 PM 77.0 °F - 55.4 °F 47% 29.99 in 10.0 mi ESE 9.2 mph 20.7 mph N/A   Overcast
5:15 PM 73.4 °F - 53.6 °F 50% 30.02 in 10.0 mi East 8.1 mph - N/A   Overcast
5:35 PM 68.0 °F - 62.6 °F 83% 30.02 in 4.0 mi SE 5.8 mph - 0.05 in Rain Heavy Rain
5:55 PM 68.0 °F - 62.6 °F 83% 30.02 in 10.0 mi ESE 3.5 mph - 0.07 in Rain Light Rain
6:15 PM 69.8 °F - 62.6 °F 78% 30.03 in 10.0 mi Calm Calm - N/A   Scattered Clouds
6:35 PM 68.0 °F - 62.6 °F 83% 30.03 in 10.0 mi Calm Calm - N/A   Clear
6:55 PM 69.8 °F - 62.6 °F 78% 30.04 in 10.0 mi ESE 3.5 mph - N/A Rain Light Rain
7:15 PM 69.8 °F - 62.6 °F 78% 30.04 in 10.0 mi Calm Calm - N/A   Scattered Clouds
7:35 PM 68.0 °F - 66.2 °F 94% 30.04 in 10.0 mi Calm Calm - N/A   Clear
7:55 PM 68.0 °F - 66.2 °F 94% 30.04 in 10.0 mi Calm Calm - N/A   Scattered Clouds
8:15 PM 68.0 °F - 66.2 °F 94% 30.04 in 10.0 mi Calm Calm - N/A   Scattered Clouds
8:35 PM 68.0 °F - 66.2 °F 94% 30.04 in 7.0 mi Calm Calm - N/A   Mostly Cloudy
8:55 PM 66.2 °F - 64.4 °F 94% 30.04 in 7.0 mi Calm Calm - N/A   Scattered Clouds
9:15 PM 64.4 °F - 64.4 °F 100% 30.05 in 5.0 mi Calm Calm - N/A   Mostly Cloudy
9:35 PM 64.4 °F - 64.4 °F 100% 30.06 in 5.0 mi Calm Calm - N/A   Overcast
9:55 PM 64.4 °F - 64.4 °F 100% 30.06 in 5.0 mi Calm Calm - N/A   Overcast
10:15 PM 64.4 °F - 64.4 °F 100% 30.07 in 5.0 mi Calm Calm - N/A   Overcast
10:35 PM 64.4 °F - 62.6 °F 94% 30.08 in 7.0 mi Calm Calm - N/A   Overcast
10:55 PM 64.4 °F - 64.4 °F 100% 30.08 in 7.0 mi Calm Calm - N/A   Mostly Cloudy
11:15 PM 64.4 °F - 62.6 °F 94% 30.08 in 7.0 mi Calm Calm - N/A   Mostly Cloudy
11:35 PM 64.4 °F - 62.6 °F 94% 30.08 in 7.0 mi Calm Calm - N/A   Mostly Cloudy
11:55 PM 64.4 °F - 62.6 °F 94% 30.08 in 5.0 mi Calm Calm - N/A   Overcast